RUK3GZ EGCC-EGAA

Flight info

Callsign RUK3GZ
Flight time 0h 41m
Altitude 24000
Route ASMIM L975 WAL M146 IPSET P6 BELZU
Aircraft B738/M-SDE2E3FGHIRWXY/LB1

Departure

Time 2026-05-05 21:21
Airport Manchester Airport (EGCC)

Arrival

Time 2026-05-05 22:03
Airport Belfast International Airport (EGAA)
Time Latitude Longitude Altitude Speed Heading
2026-05-05 20:46 53.36091 -2.26794 232 ft 0 kts 315°
2026-05-05 21:01 53.36076 -2.26769 236 ft 4 kts 309°
2026-05-05 21:01 53.36062 -2.26732 237 ft 4 kts 292°
2026-05-05 21:01 53.36057 -2.26691 236 ft 4 kts 251°
2026-05-05 21:02 53.36061 -2.26676 236 ft 1 kts 231°
2026-05-05 21:06 53.36057 -2.26685 236 ft 3 kts 231°
2026-05-05 21:06 53.36037 -2.26727 235 ft 7 kts 231°
2026-05-05 21:07 53.36000 -2.26804 232 ft 11 kts 231°
2026-05-05 21:07 53.35931 -2.26831 234 ft 10 kts 170°
2026-05-05 21:07 53.35886 -2.26870 234 ft 9 kts 229°
2026-05-05 21:07 53.35841 -2.26965 232 ft 12 kts 239°
2026-05-05 21:08 53.35787 -2.27106 232 ft 17 kts 231°
2026-05-05 21:08 53.35715 -2.27257 232 ft 17 kts 231°
2026-05-05 21:08 53.35634 -2.27425 232 ft 20 kts 231°
2026-05-05 21:08 53.35550 -2.27600 232 ft 18 kts 232°
2026-05-05 21:09 53.35476 -2.27751 232 ft 12 kts 230°
2026-05-05 21:09 53.35457 -2.27889 232 ft 13 kts 263°
2026-05-05 21:09 53.35406 -2.28004 232 ft 14 kts 224°
2026-05-05 21:09 53.35329 -2.28125 232 ft 17 kts 223°
2026-05-05 21:10 53.35240 -2.28280 232 ft 20 kts 229°
2026-05-05 21:10 53.35163 -2.28442 232 ft 18 kts 231°
2026-05-05 21:10 53.35082 -2.28611 232 ft 19 kts 231°
2026-05-05 21:10 53.35012 -2.28745 232 ft 13 kts 226°
2026-05-05 21:11 53.34954 -2.28847 232 ft 12 kts 226°
2026-05-05 21:11 53.34908 -2.28927 232 ft 2 kts 226°
2026-05-05 21:11 53.34908 -2.28928 232 ft 0 kts 226°
2026-05-05 21:12 53.34898 -2.28945 232 ft 4 kts 226°
2026-05-05 21:12 53.34878 -2.28979 232 ft 4 kts 226°
2026-05-05 21:12 53.34873 -2.28988 232 ft 0 kts 226°
2026-05-05 21:13 53.34872 -2.28990 232 ft 2 kts 226°
2026-05-05 21:13 53.34848 -2.29028 232 ft 8 kts 220°
2026-05-05 21:13 53.34802 -2.29068 234 ft 3 kts 196°
2026-05-05 21:14 53.34797 -2.29070 233 ft 0 kts 191°
2026-05-05 21:19 53.34788 -2.29072 232 ft 5 kts 187°
2026-05-05 21:19 53.34726 -2.29058 232 ft 13 kts 159°
2026-05-05 21:19 53.34674 -2.28975 232 ft 6 kts 105°
2026-05-05 21:20 53.34693 -2.28907 232 ft 9 kts 51°
2026-05-05 21:20 53.34705 -2.28881 232 ft 0 kts 51°
2026-05-05 21:20 53.34705 -2.28882 232 ft 0 kts 51°
2026-05-05 21:20 53.34723 -2.28845 232 ft 18 kts 51°
2026-05-05 21:21 53.35008 -2.28257 232 ft 110 kts 51°
2026-05-05 21:21 53.35614 -2.26994 579 ft 156 kts 51°
2026-05-05 21:21 53.36340 -2.25480 1564 ft 172 kts 51°
2026-05-05 21:21 53.37123 -2.23880 2575 ft 189 kts 52°
2026-05-05 21:22 53.38020 -2.22023 2964 ft 215 kts 49°
2026-05-05 21:22 53.39361 -2.20702 3413 ft 243 kts 11°
2026-05-05 21:22 53.41040 -2.21199 4244 ft 255 kts 331°
2026-05-05 21:22 53.42275 -2.23256 4777 ft 260 kts 297°
2026-05-05 21:23 53.42823 -2.26104 5006 ft 262 kts 287°
2026-05-05 21:23 53.43410 -2.29009 5245 ft 267 kts 292°
2026-05-05 21:23 53.44131 -2.31872 6299 ft 263 kts 294°
2026-05-05 21:23 53.44893 -2.34653 7330 ft 263 kts 296°
2026-05-05 21:24 53.45440 -2.36532 7916 ft 266 kts 297°
2026-05-05 21:24 53.46257 -2.39253 8942 ft 265 kts 298°
2026-05-05 21:24 53.46905 -2.42162 9815 ft 273 kts 280°
2026-05-05 21:24 53.46855 -2.45417 10490 ft 287 kts 263°
2026-05-05 21:25 53.46484 -2.48864 10741 ft 314 kts 261°
2026-05-05 21:25 53.46043 -2.52564 11163 ft 330 kts 261°
2026-05-05 21:25 53.45598 -2.56373 12001 ft 332 kts 261°
2026-05-05 21:25 53.45166 -2.60188 12880 ft 335 kts 261°
2026-05-05 21:26 53.44735 -2.64061 13651 ft 340 kts 261°
2026-05-05 21:26 53.44357 -2.68003 14427 ft 342 kts 267°
2026-05-05 21:26 53.44454 -2.71985 15170 ft 344 kts 279°
2026-05-05 21:26 53.45017 -2.75895 15909 ft 347 kts 289°
2026-05-05 21:27 53.46012 -2.79610 16643 ft 351 kts 296°
2026-05-05 21:27 53.47143 -2.83270 17340 ft 355 kts 297°
2026-05-05 21:27 53.48302 -2.86912 18058 ft 358 kts 297°
2026-05-05 21:27 53.49478 -2.90600 18850 ft 357 kts 297°
2026-05-05 21:28 53.50638 -2.94265 19718 ft 353 kts 296°
2026-05-05 21:28 53.51775 -2.97893 20559 ft 350 kts 296°
2026-05-05 21:28 53.52903 -3.01518 21330 ft 349 kts 296°
2026-05-05 21:28 53.54020 -3.05128 22099 ft 348 kts 296°
2026-05-05 21:29 53.55132 -3.08736 22910 ft 346 kts 296°
2026-05-05 21:29 53.56232 -3.12317 23682 ft 344 kts 296°
2026-05-05 21:29 53.57336 -3.15916 23999 ft 345 kts 296°
2026-05-05 21:29 53.58433 -3.19504 24040 ft 344 kts 296°
2026-05-05 21:30 53.59514 -3.23042 24055 ft 345 kts 296°
2026-05-05 21:30 53.60612 -3.26643 24062 ft 345 kts 296°
2026-05-05 21:30 53.61709 -3.30247 24064 ft 346 kts 296°
2026-05-05 21:30 53.62809 -3.33863 24066 ft 347 kts 296°
2026-05-05 21:31 53.63909 -3.37487 24060 ft 347 kts 295°
2026-05-05 21:31 53.65002 -3.41093 24058 ft 347 kts 295°
2026-05-05 21:31 53.66103 -3.44733 24055 ft 347 kts 295°
2026-05-05 21:31 53.67201 -3.48365 24055 ft 347 kts 295°
2026-05-05 21:32 53.68293 -3.51984 24054 ft 346 kts 295°
2026-05-05 21:32 53.69384 -3.55604 24054 ft 346 kts 295°
2026-05-05 21:32 53.70471 -3.59216 24053 ft 345 kts 295°
2026-05-05 21:32 53.71559 -3.62841 24052 ft 345 kts 295°
2026-05-05 21:33 53.72643 -3.66453 24055 ft 344 kts 295°
2026-05-05 21:33 53.73709 -3.70014 24055 ft 344 kts 295°
2026-05-05 21:33 53.74789 -3.73625 24052 ft 344 kts 295°
2026-05-05 21:33 53.75866 -3.77234 24051 ft 344 kts 295°
2026-05-05 21:34 53.76943 -3.80848 24053 ft 344 kts 295°
2026-05-05 21:34 53.78018 -3.84458 24051 ft 344 kts 295°
2026-05-05 21:34 53.79093 -3.88077 24053 ft 344 kts 295°
2026-05-05 21:34 53.80167 -3.91695 24056 ft 344 kts 295°
2026-05-05 21:35 53.81241 -3.95319 24054 ft 344 kts 295°
2026-05-05 21:35 53.82314 -3.98946 24054 ft 344 kts 295°
2026-05-05 21:35 53.83385 -4.02573 24055 ft 345 kts 295°
2026-05-05 21:35 53.84458 -4.06208 24055 ft 345 kts 295°
2026-05-05 21:36 53.85527 -4.09838 24057 ft 345 kts 295°
2026-05-05 21:36 53.86584 -4.13432 24054 ft 345 kts 295°
2026-05-05 21:36 53.87679 -4.17056 24055 ft 345 kts 298°
2026-05-05 21:36 53.89009 -4.20445 24064 ft 346 kts 303°
2026-05-05 21:37 53.90408 -4.23761 24062 ft 346 kts 304°
2026-05-05 21:37 53.91808 -4.27097 24063 ft 346 kts 303°
2026-05-05 21:37 53.93261 -4.30357 24066 ft 347 kts 308°
2026-05-05 21:37 53.94839 -4.33464 23956 ft 348 kts 309°
2026-05-05 21:38 53.96454 -4.36511 23776 ft 342 kts 310°
2026-05-05 21:38 53.98029 -4.39457 23650 ft 332 kts 310°
2026-05-05 21:38 53.99569 -4.42356 23361 ft 327 kts 310°
2026-05-05 21:38 54.01064 -4.45194 22950 ft 326 kts 309°
2026-05-05 21:39 54.02571 -4.48078 22539 ft 325 kts 309°
2026-05-05 21:39 54.04066 -4.50954 22166 ft 323 kts 309°
2026-05-05 21:39 54.05548 -4.53815 21802 ft 321 kts 309°
2026-05-05 21:39 54.07016 -4.56657 21438 ft 319 kts 309°
2026-05-05 21:40 54.08480 -4.59497 21081 ft 317 kts 309°
2026-05-05 21:40 54.09930 -4.62315 20731 ft 315 kts 309°
2026-05-05 21:40 54.11369 -4.65117 20385 ft 314 kts 309°
2026-05-05 21:40 54.12805 -4.67916 20041 ft 312 kts 309°
2026-05-05 21:41 54.14228 -4.70693 19711 ft 310 kts 309°
2026-05-05 21:41 54.15626 -4.73425 19402 ft 308 kts 309°
2026-05-05 21:41 54.17050 -4.76210 19057 ft 307 kts 309°
2026-05-05 21:41 54.18431 -4.78914 18736 ft 305 kts 309°
2026-05-05 21:42 54.19822 -4.81642 18425 ft 303 kts 309°
2026-05-05 21:42 54.21202 -4.84350 18067 ft 301 kts 309°
2026-05-05 21:42 54.22577 -4.87053 17715 ft 300 kts 309°
2026-05-05 21:42 54.23940 -4.89734 17358 ft 298 kts 309°
2026-05-05 21:43 54.25298 -4.92407 17007 ft 297 kts 309°
2026-05-05 21:43 54.26645 -4.95064 16662 ft 295 kts 309°
2026-05-05 21:43 54.27984 -4.97707 16338 ft 293 kts 309°
2026-05-05 21:43 54.29313 -5.00333 16009 ft 292 kts 309°
2026-05-05 21:44 54.30640 -5.02957 15680 ft 290 kts 309°
2026-05-05 21:44 54.31958 -5.05566 15364 ft 288 kts 309°
2026-05-05 21:44 54.33264 -5.08155 15043 ft 287 kts 309°
2026-05-05 21:44 54.34566 -5.10739 14744 ft 285 kts 309°
2026-05-05 21:45 54.35861 -5.13312 14422 ft 284 kts 310°
2026-05-05 21:45 54.37126 -5.15826 14074 ft 279 kts 310°
2026-05-05 21:45 54.38391 -5.18345 13517 ft 279 kts 310°
2026-05-05 21:45 54.39654 -5.20861 12980 ft 277 kts 310°
2026-05-05 21:46 54.40894 -5.23335 12657 ft 269 kts 310°
2026-05-05 21:46 54.42094 -5.25729 12354 ft 261 kts 310°
2026-05-05 21:46 54.43259 -5.28058 12074 ft 254 kts 310°
2026-05-05 21:46 54.44404 -5.30349 11803 ft 252 kts 310°
2026-05-05 21:47 54.45546 -5.32635 11536 ft 253 kts 310°
2026-05-05 21:47 54.46720 -5.34988 11275 ft 266 kts 310°
2026-05-05 21:47 54.47940 -5.37437 10978 ft 271 kts 310°
2026-05-05 21:47 54.49153 -5.39872 10662 ft 265 kts 310°
2026-05-05 21:48 54.50335 -5.42247 10368 ft 257 kts 310°
2026-05-05 21:48 54.51429 -5.44599 10192 ft 245 kts 299°
2026-05-05 21:48 54.51987 -5.47266 10015 ft 240 kts 282°
2026-05-05 21:48 54.52238 -5.50117 9743 ft 242 kts 278°
2026-05-05 21:49 54.52427 -5.53062 9490 ft 254 kts 277°
2026-05-05 21:49 54.52615 -5.56147 9200 ft 261 kts 277°
2026-05-05 21:49 54.52805 -5.59228 8894 ft 255 kts 277°
2026-05-05 21:49 54.52993 -5.62210 8618 ft 247 kts 277°
2026-05-05 21:50 54.53178 -5.65104 8354 ft 240 kts 277°
2026-05-05 21:50 54.53222 -5.67972 8095 ft 241 kts 265°
2026-05-05 21:50 54.53003 -5.70827 7868 ft 243 kts 263°
2026-05-05 21:50 54.52778 -5.73773 7618 ft 254 kts 263°
2026-05-05 21:51 54.52551 -5.76836 7339 ft 259 kts 263°
2026-05-05 21:51 54.52332 -5.79879 7044 ft 253 kts 263°
2026-05-05 21:51 54.52125 -5.82855 6767 ft 246 kts 263°
2026-05-05 21:51 54.51932 -5.85705 6506 ft 241 kts 263°
2026-05-05 21:52 54.51553 -5.91493 5923 ft 251 kts 263°
2026-05-05 21:52 54.51352 -5.94500 5674 ft 251 kts 263°
2026-05-05 21:52 54.51158 -5.97363 5561 ft 232 kts 263°
2026-05-05 21:53 54.50973 -6.00026 5401 ft 216 kts 263°
2026-05-05 21:53 54.50795 -6.02517 5095 ft 209 kts 264°
2026-05-05 21:53 54.50612 -6.04991 4783 ft 204 kts 263°
2026-05-05 21:53 54.50430 -6.07360 4602 ft 195 kts 264°
2026-05-05 21:54 54.50245 -6.09653 4519 ft 195 kts 263°
2026-05-05 21:54 54.50053 -6.12015 4459 ft 201 kts 263°
2026-05-05 21:54 54.49853 -6.14422 4376 ft 204 kts 263°
2026-05-05 21:54 54.49650 -6.16837 4294 ft 203 kts 263°
2026-05-05 21:55 54.49448 -6.19227 4237 ft 200 kts 263°
2026-05-05 21:55 54.49247 -6.21590 4175 ft 199 kts 263°
2026-05-05 21:55 54.49046 -6.23932 4136 ft 198 kts 263°
2026-05-05 21:55 54.48844 -6.26265 4019 ft 197 kts 263°
2026-05-05 21:56 54.48641 -6.28572 3932 ft 194 kts 263°
2026-05-05 21:56 54.48436 -6.30875 3680 ft 199 kts 263°
2026-05-05 21:56 54.48412 -6.33232 3397 ft 193 kts 293°
2026-05-05 21:56 54.49232 -6.34893 3171 ft 179 kts 327°
2026-05-05 21:57 54.50193 -6.36154 2905 ft 174 kts 323°
2026-05-05 21:57 54.51090 -6.37498 2640 ft 168 kts 321°
2026-05-05 21:57 54.51942 -6.38859 2543 ft 170 kts 320°
2026-05-05 21:57 54.52795 -6.40277 2494 ft 170 kts 319°
2026-05-05 21:58 54.53619 -6.41687 2488 ft 165 kts 319°
2026-05-05 21:58 54.54426 -6.43088 2485 ft 165 kts 318°
2026-05-05 21:58 54.55234 -6.44500 2504 ft 166 kts 318°
2026-05-05 21:58 54.56043 -6.45921 2499 ft 166 kts 318°
2026-05-05 21:59 54.56899 -6.47259 2477 ft 164 kts 336°
2026-05-05 21:59 54.57957 -6.47289 2496 ft 156 kts 30°
2026-05-05 21:59 54.58702 -6.45935 2521 ft 161 kts 47°
2026-05-05 21:59 54.59418 -6.44410 2496 ft 164 kts 54°
2026-05-05 22:00 54.59997 -6.42713 2485 ft 164 kts 59°
2026-05-05 22:00 54.60521 -6.40949 2413 ft 168 kts 60°
2026-05-05 22:00 54.61024 -6.39142 2153 ft 172 kts 60°
2026-05-05 22:00 54.61537 -6.37254 1959 ft 177 kts 61°
2026-05-05 22:01 54.62065 -6.35289 1717 ft 178 kts 61°
2026-05-05 22:01 54.62573 -6.33394 1496 ft 172 kts 61°
2026-05-05 22:01 54.63054 -6.31598 1250 ft 158 kts 62°
2026-05-05 22:01 54.63490 -6.29974 1069 ft 141 kts 62°
2026-05-05 22:02 54.63898 -6.28459 861 ft 136 kts 63°
2026-05-05 22:02 54.64303 -6.26971 729 ft 137 kts 62°
2026-05-05 22:02 54.64713 -6.25466 568 ft 139 kts 64°
2026-05-05 22:02 54.65117 -6.23957 380 ft 137 kts 65°
2026-05-05 22:03 54.65508 -6.22494 271 ft 122 kts 64°
2026-05-05 22:03 54.65716 -6.21711 273 ft 36 kts 65°
2026-05-05 22:03 54.65801 -6.21394 272 ft 17 kts 60°
2026-05-05 22:03 54.65870 -6.21334 271 ft 8 kts 353°
2026-05-05 22:04 54.65927 -6.21371 274 ft 10 kts 334°
2026-05-05 22:04 54.65959 -6.21473 271 ft 11 kts 263°
2026-05-05 22:04 54.65926 -6.21606 271 ft 13 kts 244°
2026-05-05 22:04 54.65882 -6.21768 271 ft 16 kts 245°
2026-05-05 22:05 54.65842 -6.21920 272 ft 10 kts 252°
2026-05-05 22:05 54.65873 -6.22022 271 ft 11 kts 332°
2026-05-05 22:05 54.65931 -6.21990 271 ft 9 kts 60°
2026-05-05 22:05 54.65950 -6.21922 271 ft 0 kts 65°